TimeMST,TemperatureF,Dew PointF,Humidity,Sea Level PressureIn,VisibilityMPH,Wind Direction,Wind SpeedMPH,Gust SpeedMPH,PrecipitationIn,Events,Conditions,WindDirDegrees,DateUTC
12:55 AM,59.0,6.8,13,29.66,10.0,West,17.3,27.6,N/A,,Mostly Cloudy,260,2014-03-18 07:55:00
1:55 AM,60.8,6.8,12,29.65,10.0,WSW,20.7,26.5,N/A,,Mostly Cloudy,250,2014-03-18 08:55:00
2:55 AM,59.0,5.0,12,29.64,10.0,WSW,18.4,-,N/A,,Mostly Cloudy,250,2014-03-18 09:55:00
3:55 AM,59.0,3.2,11,29.64,10.0,WSW,16.1,-,N/A,,Mostly Cloudy,250,2014-03-18 10:55:00
4:55 AM,59.0,5.0,12,29.65,10.0,WSW,15.0,-,N/A,,Mostly Cloudy,250,2014-03-18 11:55:00
5:55 AM,57.2,6.8,13,29.68,10.0,WSW,12.7,-,N/A,,Mostly Cloudy,250,2014-03-18 12:55:00
6:55 AM,48.2,8.6,20,29.74,10.0,Calm,Calm,-,N/A,,Mostly Cloudy,0,2014-03-18 13:55:00
7:55 AM,55.4,8.6,15,29.76,10.0,East,3.5,-,N/A,,Overcast,80,2014-03-18 14:55:00
8:55 AM,60.8,8.6,13,29.77,10.0,Calm,Calm,-,N/A,,Overcast,0,2014-03-18 15:55:00
9:55 AM,64.4,10.4,12,29.77,10.0,West,10.4,-,N/A,,Overcast,280,2014-03-18 16:55:00
10:55 AM,69.8,8.6,9,29.77,10.0,West,13.8,20.7,N/A,,Overcast,260,2014-03-18 17:55:00
11:55 AM,71.6,6.8,8,29.77,10.0,West,16.1,23.0,N/A,,Mostly Cloudy,260,2014-03-18 18:55:00
12:55 PM,71.6,6.8,8,29.75,10.0,West,16.1,23.0,N/A,,Mostly Cloudy,260,2014-03-18 19:55:00
1:55 PM,75.2,6.8,7,29.88,10.0,West,23.0,28.8,N/A,,Mostly Cloudy,270,2014-03-18 20:55:00
2:55 PM,73.4,8.6,8,29.72,10.0,West,17.3,28.8,N/A,,Overcast,270,2014-03-18 21:55:00
3:55 PM,73.4,6.8,8,29.73,10.0,West,19.6,25.3,N/A,,Overcast,260,2014-03-18 22:55:00
4:55 PM,71.6,8.6,9,29.74,10.0,West,23.0,26.5,N/A,,Overcast,270,2014-03-18 23:55:00
5:55 PM,69.8,8.6,9,29.76,10.0,SW,17.3,-,N/A,,Overcast,230,2014-03-19 00:55:00
6:55 PM,64.4,10.4,12,29.81,10.0,WSW,10.4,-,N/A,,Mostly Cloudy,240,2014-03-19 01:55:00
7:55 PM,57.2,10.4,16,29.85,10.0,WSW,9.2,-,N/A,,Mostly Cloudy,250,2014-03-19 02:55:00
8:55 PM,57.2,10.4,16,29.86,10.0,SW,11.5,-,N/A,,Scattered Clouds,230,2014-03-19 03:55:00
9:55 PM,55.4,10.4,17,29.86,10.0,WSW,10.4,-,N/A,,Mostly Cloudy,250,2014-03-19 04:55:00
10:55 PM,53.6,10.4,18,29.88,10.0,West,11.5,-,N/A,,Mostly Cloudy,260,2014-03-19 05:55:00
11:55 PM,53.6,14.0,21,29.88,10.0,West,11.5,-,N/A,,Mostly Cloudy,260,2014-03-19 06:55:00